Station Historical Data
Daily Summary for May 24, 2017 Units:  Metric    English   Both
« Previous Day
Next Day »
Daily Weekly Monthly Yearly Custom
  High: Low: Average:
Temperature: 26.2 °C 13.6 °C 19.8 °C
Dew Point: 11.8 °C 5.7 °C 9.1 °C
Humidity: 78% 30% 53%
Wind Speed: 17.7km/h 0km/h 4.5km/h
Wind Gust: 25.7km/h - -
Wind- - SE
Pressure: 1006.7 hPa 1001.2 hPa -
Precipitation: 0 mm    
Historical Graphs
 
 
Tabular Data for May 24, 2017
Time Temperature Dew Point Pressure Wind Wind Speed Wind Gust Humidity Rainfall Rate (Hourly)
00:00 16.9 °C 10.5 °C 1006.7 hPa ENE 1.6 km/h 12.9 km/h 66% 0 mm
00:05 16.8 °C 10.4 °C 1006.7 hPa East 4.8 km/h 12.9 km/h 66% 0 mm
00:10 16.6 °C 10.4 °C 1006.7 hPa ENE 1.6 km/h 9.7 km/h 67% 0 mm
00:15 16.6 °C 10.2 °C 1006.7 hPa ENE 3.2 km/h 12.9 km/h 66% 0 mm
00:20 16.5 °C 10.3 °C 1006.7 hPa East 3.2 km/h 12.9 km/h 67% 0 mm
00:25 16.4 °C 10.3 °C 1006.7 hPa East 3.2 km/h 9.7 km/h 67% 0 mm
00:30 16.3 °C 10.3 °C 1006.7 hPa East 3.2 km/h 4.8 km/h 68% 0 mm
00:35 16.1 °C 10.2 °C 1006.3 hPa East 1.6 km/h 4.8 km/h 68% 0 mm
00:40 16.1 °C 10.2 °C 1006.3 hPa East 3.2 km/h 8 km/h 68% 0 mm
00:45 16 °C 10.1 °C 1006.3 hPa ENE 3.2 km/h 9.7 km/h 68% 0 mm
00:50 16 °C 9.9 °C 1006.3 hPa ENE 3.2 km/h 8 km/h 67% 0 mm
00:55 16.1 °C 9.9 °C 1006.3 hPa ENE 1.6 km/h 9.7 km/h 67% 0 mm
01:00 16.1 °C 9.9 °C 1006.3 hPa ENE 6.4 km/h 12.9 km/h 67% 0 mm
01:05 16 °C 9.9 °C 1006.3 hPa East 3.2 km/h 12.9 km/h 67% 0 mm
01:10 16 °C 9.9 °C 1006.3 hPa East 3.2 km/h 9.7 km/h 67% 0 mm
01:15 15.9 °C 9.8 °C 1006.3 hPa East 1.6 km/h 4.8 km/h 67% 0 mm
01:20 15.9 °C 9.8 °C 1006.3 hPa East 1.6 km/h 8 km/h 67% 0 mm
01:25 15.9 °C 9.8 °C 1006.3 hPa ENE 4.8 km/h 4.8 km/h 67% 0 mm
01:30 15.9 °C 9.8 °C 1006 hPa East 3.2 km/h 8 km/h 67% 0 mm
01:40 15.8 °C 9.9 °C 1006 hPa East 3.2 km/h 6.4 km/h 68% 0 mm
01:45 15.7 °C 9.8 °C 1006 hPa ENE 1.6 km/h 4.8 km/h 68% 0 mm
01:50 15.6 °C 9.7 °C 1006 hPa ENE 1.6 km/h 4.8 km/h 68% 0 mm
01:55 15.6 °C 9.7 °C 1005.6 hPa Calm   3.2 km/h 68% 0 mm
02:00 15.4 °C 9.8 °C 1005.3 hPa Calm   3.2 km/h 69% 0 mm
02:05 15.3 °C 9.6 °C 1005.3 hPa Calm     69% 0 mm
02:10 15.1 °C 9.7 °C 1005.3 hPa Calm     70% 0 mm
02:15 15.1 °C 9.6 °C 1005.3 hPa Calm     70% 0 mm
02:20 15 °C 9.8 °C 1005.3 hPa Calm     71% 0 mm
02:25 14.9 °C 9.7 °C 1005.3 hPa Calm     71% 0 mm
02:30 14.9 °C 9.7 °C 1005.3 hPa Calm     71% 0 mm
02:35 14.9 °C 9.7 °C 1005.3 hPa Calm     71% 0 mm
02:40 14.8 °C 9.8 °C 1005.6 hPa Calm     72% 0 mm
02:45 14.7 °C 9.7 °C 1005.6 hPa Calm     72% 0 mm
02:50 14.6 °C 9.6 °C 1005.6 hPa Calm     72% 0 mm
02:55 14.5 °C 9.7 °C 1005.6 hPa Calm   3.2 km/h 73% 0 mm
03:00 14.4 °C 9.6 °C 1005.6 hPa Calm   3.2 km/h 73% 0 mm
03:05 14.3 °C 9.8 °C 1005.6 hPa Calm     74% 0 mm
03:10 14.2 °C 9.6 °C 1006 hPa Calm     74% 0 mm
03:15 13.9 °C 9.6 °C 1006 hPa Calm     75% 0 mm
03:20 13.8 °C 9.6 °C 1005.6 hPa Calm     76% 0 mm
03:25 13.8 °C 9.6 °C 1005.6 hPa Calm     76% 0 mm
03:30 13.9 °C 9.7 °C 1005.3 hPa Calm     76% 0 mm
03:35 13.9 °C 9.8 °C 1005.3 hPa Calm     76% 0 mm
03:40 14 °C 9.8 °C 1005.3 hPa Calm     76% 0 mm
03:45 14.1 °C 9.7 °C 1005.3 hPa Calm     75% 0 mm
03:50 14 °C 9.8 °C 1005.3 hPa Calm     76% 0 mm
03:55 14.1 °C 9.9 °C 1005.3 hPa Calm     76% 0 mm
04:00 14.1 °C 9.9 °C 1005.3 hPa Calm     76% 0 mm
04:05 14 °C 9.8 °C 1005.3 hPa Calm     76% 0 mm
04:10 13.9 °C 9.7 °C 1005.3 hPa Calm     76% 0 mm
04:15 13.9 °C 9.8 °C 1005.3 hPa Calm     76% 0 mm
04:20 13.9 °C 10 °C 1005.3 hPa Calm     77% 0 mm
04:25 13.9 °C 10 °C 1005.3 hPa Calm     77% 0 mm
04:30 14.1 °C 9.9 °C 1005.3 hPa Calm     76% 0 mm
04:35 14 °C 9.8 °C 1005.3 hPa Calm     76% 0 mm
04:40 14.1 °C 9.9 °C 1005.3 hPa Calm     76% 0 mm
04:45 14.1 °C 9.9 °C 1005 hPa Calm     76% 0 mm
04:50 14.1 °C 9.9 °C 1005 hPa Calm     76% 0 mm
04:55 14.1 °C 9.9 °C 1005 hPa Calm     76% 0 mm
05:00 13.9 °C 10 °C 1005 hPa Calm     77% 0 mm
05:05 13.8 °C 9.9 °C 1005 hPa Calm     77% 0 mm
05:10 13.8 °C 9.8 °C 1005 hPa Calm     77% 0 mm
05:15 13.7 °C 9.8 °C 1005 hPa Calm     77% 0 mm
05:20 13.7 °C 9.9 °C 1004.6 hPa Calm     78% 0 mm
05:25 13.6 °C 9.8 °C 1004.6 hPa Calm     78% 0 mm
05:30 13.7 °C 9.9 °C 1004.6 hPa Calm     78% 0 mm
05:35 13.7 °C 9.7 °C 1005 hPa Calm     77% 0 mm
05:40 13.7 °C 9.8 °C 1005 hPa Calm   1.6 km/h 77% 0 mm
05:45 13.8 °C 9.8 °C 1005 hPa East 1.6 km/h 4.8 km/h 77% 0 mm
05:50 13.8 °C 9.9 °C 1005 hPa Calm   3.2 km/h 77% 0 mm
05:55 13.9 °C 9.9 °C 1005 hPa East 1.6 km/h 3.2 km/h 77% 0 mm
06:00 13.9 °C 9.7 °C 1005 hPa East 1.6 km/h 4.8 km/h 76% 0 mm
06:05 13.9 °C 9.8 °C 1005 hPa Calm   4.8 km/h 76% 0 mm
06:10 13.9 °C 10 °C 1005 hPa Calm   3.2 km/h 77% 0 mm
06:15 13.9 °C 10 °C 1005 hPa Calm   3.2 km/h 77% 0 mm
06:20 13.9 °C 10 °C 1005 hPa Calm     77% 0 mm
06:25 13.9 °C 10 °C 1005 hPa Calm     77% 0 mm
06:30 14 °C 9.8 °C 1005 hPa Calm   4.8 km/h 76% 0 mm
06:35 14.1 °C 10.1 °C 1005 hPa Calm   4.8 km/h 77% 0 mm
06:40 14.1 °C 9.9 °C 1005 hPa Calm     76% 0 mm
06:45 14.2 °C 10 °C 1005 hPa Calm     76% 0 mm
06:50 14.2 °C 10.1 °C 1005 hPa Calm     76% 0 mm
06:55 14.3 °C 10.2 °C 1005 hPa Calm     76% 0 mm
07:00 14.4 °C 10.3 °C 1005 hPa Calm     76% 0 mm
07:05 14.4 °C 10.3 °C 1005 hPa Calm     76% 0 mm
07:10 14.5 °C 10.1 °C 1005 hPa Calm     75% 0 mm
07:15 14.7 °C 10.3 °C 1004.6 hPa Calm     75% 0 mm
07:20 14.8 °C 10.2 °C 1004.6 hPa East 3.2 km/h 4.8 km/h 74% 0 mm
07:25 14.9 °C 10.3 °C 1005 hPa East 1.6 km/h 4.8 km/h 74% 0 mm
07:30 15.1 °C 10.3 °C 1004.6 hPa Calm   8 km/h 73% 0 mm
07:35 15.3 °C 10.3 °C 1004.6 hPa Calm   8 km/h 72% 0 mm
07:40 15.5 °C 10.3 °C 1004.6 hPa Calm   4.8 km/h 71% 0 mm
07:45 15.7 °C 10.2 °C 1005 hPa Calm     70% 0 mm
07:50 15.8 °C 10.1 °C 1005 hPa Calm   3.2 km/h 69% 0 mm
07:55 15.7 °C 10.1 °C 1005 hPa SSE 1.6 km/h 6.4 km/h 69% 0 mm
08:00 15.7 °C 9.8 °C 1005.3 hPa SSE 1.6 km/h 6.4 km/h 68% 0 mm
08:05 15.8 °C 9.9 °C 1005.3 hPa SSE 1.6 km/h 4.8 km/h 68% 0 mm
08:10 16 °C 10.3 °C 1005.3 hPa Calm     69% 0 mm
08:15 16.1 °C 10.4 °C 1005 hPa Calm   3.2 km/h 69% 0 mm
08:20 16.1 °C 10.2 °C 1005 hPa Calm   9.7 km/h 68% 0 mm
08:25 16.3 °C 10.1 °C 1004.6 hPa East 4.8 km/h 12.9 km/h 67% 0 mm
08:30 16.4 °C 10.1 °C 1005 hPa ESE 3.2 km/h 11.3 km/h 66% 0 mm
08:35 16.6 °C 10.2 °C 1005 hPa ESE 4.8 km/h 11.3 km/h 66% 0 mm
08:40 16.7 °C 10.3 °C 1005 hPa Calm   9.7 km/h 66% 0 mm
08:45 16.8 °C 10.2 °C 1005 hPa Calm   9.7 km/h 65% 0 mm
08:50 17.2 °C 10.8 °C 1005 hPa ESE 3.2 km/h 9.7 km/h 66% 0 mm
08:55 17.6 °C 10.4 °C 1005 hPa ESE 3.2 km/h 11.3 km/h 63% 0 mm
09:00 17.8 °C 10.4 °C 1005 hPa ESE 4.8 km/h 17.7 km/h 62% 0 mm
09:05 18.2 °C 11.1 °C 1005 hPa SE 4.8 km/h 17.7 km/h 63% 0 mm
09:10 18.4 °C 10.8 °C 1005 hPa SE 4.8 km/h 12.9 km/h 61% 0 mm
09:15 18.6 °C 11.7 °C 1005 hPa SE 4.8 km/h 12.9 km/h 64% 0 mm
09:20 18.9 °C 11.3 °C 1005 hPa SE 6.4 km/h 16.1 km/h 61% 0 mm
09:25 19.4 °C 11.7 °C 1004.6 hPa East 8 km/h 8 km/h 61% 0 mm
09:30 19.7 °C 11.7 °C 1004.6 hPa ESE 6.4 km/h 12.9 km/h 60% 0 mm
09:35 19.8 °C 11.8 °C 1004.6 hPa ENE 3.2 km/h 14.5 km/h 60% 0 mm
09:40 19.9 °C 10.9 °C 1005 hPa SE 6.4 km/h 11.3 km/h 56% 0 mm
09:45 19.8 °C 10.5 °C 1004.6 hPa SE 4.8 km/h 14.5 km/h 55% 0 mm
09:50 19.9 °C 10.3 °C 1004.6 hPa SE 6.4 km/h 16.1 km/h 54% 0 mm
09:55 20.6 °C 10.9 °C 1004.6 hPa SE 6.4 km/h 16.1 km/h 54% 0 mm
10:00 21.1 °C 10.5 °C 1004.6 hPa ESE 6.4 km/h 14.5 km/h 51% 0 mm
10:05 20.9 °C 10.4 °C 1004.6 hPa East 9.7 km/h 12.9 km/h 51% 0 mm
10:10 21.1 °C 9 °C 1004.6 hPa SE 8 km/h 16.1 km/h 46% 0 mm
10:15 20.9 °C 9.2 °C 1004.6 hPa East 1.6 km/h 11.3 km/h 47% 0 mm
10:20 20.8 °C 9.1 °C 1004.6 hPa ESE 4.8 km/h 17.7 km/h 47% 0 mm
10:25 20.9 °C 8.5 °C 1004.6 hPa SE 4.8 km/h 17.7 km/h 45% 0 mm
10:30 21.1 °C 8.7 °C 1004.3 hPa SE 4.8 km/h 12.9 km/h 45% 0 mm
10:35 21.4 °C 7.9 °C 1004.3 hPa ESE 4.8 km/h 16.1 km/h 42% 0 mm
10:40 21.2 °C 8.1 °C 1004.3 hPa SSE 3.2 km/h 11.3 km/h 43% 0 mm
10:45 21.1 °C 7.3 °C 1004.3 hPa SSW 6.4 km/h 14.5 km/h 41% 0 mm
10:50 20.9 °C 5.7 °C 1004.3 hPa SE 8 km/h 17.7 km/h 37% 0 mm
10:55 21.1 °C 6.2 °C 1004.3 hPa ESE 3.2 km/h 19.3 km/h 38% 0 mm
11:00 21.4 °C 8 °C 1004.3 hPa ESE 6.4 km/h 16.1 km/h 42% 0 mm
11:05 21.9 °C 7.7 °C 1004.3 hPa SE 4.8 km/h 14.5 km/h 40% 0 mm
11:10 21.9 °C 7.7 °C 1004.3 hPa SE 11.3 km/h 12.9 km/h 40% 0 mm
11:15 22.1 °C 7.4 °C 1004.3 hPa SE 8 km/h 11.3 km/h 39% 0 mm
11:20 21.7 °C 6.7 °C 1004.3 hPa SSE 6.4 km/h 14.5 km/h 38% 0 mm
11:25 21.8 °C 7.6 °C 1004.3 hPa SSE 6.4 km/h 14.5 km/h 40% 0 mm
11:30 21.9 °C 6.6 °C 1004.3 hPa South 8 km/h 17.7 km/h 37% 0 mm
11:35 21.8 °C 5.7 °C 1003.9 hPa SSE 8 km/h 17.7 km/h 35% 0 mm
11:40 21.9 °C 6.6 °C 1003.9 hPa SE 8 km/h 16.1 km/h 37% 0 mm
11:45 21.9 °C 6.9 °C 1003.9 hPa SSE 6.4 km/h 14.5 km/h 38% 0 mm
11:50 21.9 °C 6.6 °C 1003.9 hPa SSW 4.8 km/h 12.9 km/h 37% 0 mm
11:55 22.2 °C 6.8 °C 1003.9 hPa South 4.8 km/h 14.5 km/h 37% 0 mm
12:00 22.7 °C 6.8 °C 1003.6 hPa SSE 8 km/h 14.5 km/h 36% 0 mm
12:05 22.8 °C 5.7 °C 1003.6 hPa South 1.6 km/h 11.3 km/h 33% 0 mm
12:10 23.2 °C 6.1 °C 1003.6 hPa ENE 1.6 km/h 14.5 km/h 33% 0 mm
12:15 23.3 °C 6.2 °C 1003.6 hPa ESE 6.4 km/h 16.1 km/h 33% 0 mm
12:25 23.5 °C 6.3 °C 1003.3 hPa SE 6.4 km/h 12.9 km/h 33% 0 mm
12:30 23.2 °C 6.5 °C 1003.3 hPa SE 4.8 km/h 14.5 km/h 34% 0 mm
12:35 23.7 °C 8.5 °C 1003.3 hPa ESE 6.4 km/h 14.5 km/h 38% 0 mm
12:40 23.8 °C 7.4 °C 1002.9 hPa ENE 11.3 km/h 16.1 km/h 35% 0 mm
12:45 23.7 °C 8.1 °C 1002.9 hPa East 6.4 km/h 16.1 km/h 37% 0 mm
12:50 23.5 °C 5.8 °C 1002.9 hPa ESE 6.4 km/h 16.1 km/h 32% 0 mm
12:55 23.4 °C 7.9 °C 1002.9 hPa NE 6.4 km/h 16.1 km/h 37% 0 mm
13:00 23.8 °C 8.6 °C 1002.9 hPa East 3.2 km/h 12.9 km/h 38% 0 mm
13:05 23.6 °C 6.8 °C 1002.6 hPa ESE 4.8 km/h 16.1 km/h 34% 0 mm
13:10 23.3 °C 6.1 °C 1002.6 hPa SE 3.2 km/h 16.1 km/h 33% 0 mm
13:15 23.8 °C 6.9 °C 1002.6 hPa East 6.4 km/h 16.1 km/h 34% 0 mm
13:20 24.1 °C 7.6 °C 1002.6 hPa ESE 4.8 km/h 14.5 km/h 35% 0 mm
13:25 24.3 °C 8.2 °C 1002.6 hPa ESE 4.8 km/h 16.1 km/h 36% 0 mm
13:30 24.5 °C 7.2 °C 1002.6 hPa SE 6.4 km/h 20.9 km/h 33% 0 mm
13:35 24.5 °C 7.6 °C 1002.6 hPa ESE 12.9 km/h 16.1 km/h 34% 0 mm
13:40 24.7 °C 7.3 °C 1002.6 hPa East 14.5 km/h 16.1 km/h 33% 0 mm
13:45 24.7 °C 8.7 °C 1002.6 hPa ESE 8 km/h 16.1 km/h 36% 0 mm
13:50 24.8 °C 8.3 °C 1002.6 hPa ESE 6.4 km/h 16.1 km/h 35% 0 mm
13:55 24.6 °C 7.3 °C 1002.6 hPa ESE 6.4 km/h 16.1 km/h 33% 0 mm
14:00 24.4 °C 7.6 °C 1002.6 hPa East 8 km/h 16.1 km/h 34% 0 mm
14:05 24.3 °C 7 °C 1002.3 hPa SE 8 km/h 12.9 km/h 33% 0 mm
14:10 24.6 °C 7.7 °C 1002.3 hPa SSE 3.2 km/h 14.5 km/h 34% 0 mm
14:15 25.3 °C 6.4 °C 1002.3 hPa ESE 6.4 km/h 20.9 km/h 30% 0 mm
14:20 25.1 °C 6.3 °C 1002.3 hPa SE 9.7 km/h 22.5 km/h 30% 0 mm
14:25 24.4 °C 6.7 °C 1002.3 hPa SSW 12.9 km/h 17.7 km/h 32% 0 mm
14:30 24.2 °C 7.3 °C 1002.3 hPa East 3.2 km/h 17.7 km/h 34% 0 mm
14:35 24.2 °C 6.9 °C 1002.3 hPa East 16.1 km/h 17.7 km/h 33% 0 mm
14:40 24.3 °C 7.8 °C 1002.3 hPa SSE 6.4 km/h 16.1 km/h 35% 0 mm
14:45 24.4 °C 8 °C 1002.3 hPa East 8 km/h 22.5 km/h 35% 0 mm
14:50 25 °C 8.1 °C 1002.3 hPa ESE 6.4 km/h 22.5 km/h 34% 0 mm
14:55 25 °C 7.6 °C 1002.3 hPa SE 6.4 km/h 19.3 km/h 33% 0 mm
15:00 25.5 °C 8.5 °C 1001.9 hPa SE 6.4 km/h 19.3 km/h 34% 0 mm
15:05 25.6 °C 8.6 °C 1002.3 hPa SE 6.4 km/h 17.7 km/h 34% 0 mm
15:10 25.3 °C 8.3 °C 1002.3 hPa SE 6.4 km/h 17.7 km/h 34% 0 mm
15:15 25.3 °C 7.8 °C 1002.3 hPa ESE 6.4 km/h 16.1 km/h 33% 0 mm
15:20 25.4 °C 8.4 °C 1001.9 hPa ENE 11.3 km/h 19.3 km/h 34% 0 mm
15:25 25.3 °C 7.8 °C 1001.9 hPa ESE 8 km/h 14.5 km/h 33% 0 mm
15:30 24.9 °C 8 °C 1001.9 hPa SE 12.9 km/h 14.5 km/h 34% 0 mm
15:35 25.2 °C 8.6 °C 1001.9 hPa East 3.2 km/h 16.1 km/h 35% 0 mm
15:40 25.7 °C 8.2 °C 1001.9 hPa ESE 3.2 km/h 12.9 km/h 33% 0 mm
15:45 25.4 °C 8 °C 1001.9 hPa ESE 6.4 km/h 14.5 km/h 33% 0 mm
15:50 25.1 °C 8.2 °C 1001.9 hPa SE 4.8 km/h 14.5 km/h 34% 0 mm
15:55 24.9 °C 8 °C 1001.9 hPa SSE 6.4 km/h 14.5 km/h 34% 0 mm
16:00 25.1 °C 7.7 °C 1001.9 hPa SE 4.8 km/h 14.5 km/h 33% 0 mm
16:05 25.2 °C 6.8 °C 1001.9 hPa East 4.8 km/h 14.5 km/h 31% 0 mm
16:10 25.1 °C 6.3 °C 1001.6 hPa East 9.7 km/h 16.1 km/h 30% 0 mm
16:15 25.5 °C 8.1 °C 1001.6 hPa SE 6.4 km/h 16.1 km/h 33% 0 mm
16:20 25.8 °C 6.9 °C 1001.9 hPa SSE 6.4 km/h 20.9 km/h 30% 0 mm
16:25 25.5 °C 8.5 °C 1001.6 hPa SSE 8 km/h 20.9 km/h 34% 0 mm
16:30 25.7 °C 7.7 °C 1001.6 hPa ESE 4.8 km/h 19.3 km/h 32% 0 mm
16:35 25.9 °C 7 °C 1001.6 hPa East 9.7 km/h 17.7 km/h 30% 0 mm
16:40 26.2 °C 8.7 °C 1001.6 hPa East 14.5 km/h 14.5 km/h 33% 0 mm
16:45 26 °C 7.6 °C 1001.6 hPa SE 8 km/h 14.5 km/h 31% 0 mm
16:50 25.8 °C 7.4 °C 1001.6 hPa SE 8 km/h 16.1 km/h 31% 0 mm
16:55 25.6 °C 7.2 °C 1001.6 hPa SSE 8 km/h 16.1 km/h 31% 0 mm
17:00 25.5 °C 6.7 °C 1001.6 hPa SSE 1.6 km/h 16.1 km/h 30% 0 mm
17:05 25.3 °C 7.8 °C 1001.6 hPa SE 8 km/h 16.1 km/h 33% 0 mm
17:10 24.9 °C 7.6 °C 1001.6 hPa SSE 8 km/h 22.5 km/h 33% 0 mm
17:15 24.7 °C 7.8 °C 1001.6 hPa SE 3.2 km/h 22.5 km/h 34% 0 mm
17:20 24.7 °C 7.7 °C 1001.6 hPa SSE 8 km/h 22.5 km/h 34% 0 mm
17:25 24.7 °C 7.7 °C 1001.6 hPa SSE 8 km/h 17.7 km/h 34% 0 mm
17:30 24.7 °C 8.2 °C 1001.6 hPa SE 6.4 km/h 17.7 km/h 35% 0 mm
17:35 24.7 °C 8.6 °C 1001.6 hPa SE 4.8 km/h 9.7 km/h 36% 0 mm
17:40 24.6 °C 8.5 °C 1001.6 hPa ESE 17.7 km/h 17.7 km/h 36% 0 mm
17:45 24.4 °C 8.3 °C 1001.9 hPa SSE 6.4 km/h 19.3 km/h 36% 0 mm
17:50 24.2 °C 7.3 °C 1001.6 hPa SSE 14.5 km/h 17.7 km/h 34% 0 mm
17:55 24.2 °C 8.2 °C 1001.6 hPa SE 6.4 km/h 14.5 km/h 36% 0 mm
18:05 24.2 °C 8.6 °C 1001.6 hPa SE 1.6 km/h 14.5 km/h 37% 0 mm
18:10 24.1 °C 8.5 °C 1001.6 hPa SE 1.6 km/h 20.9 km/h 37% 0 mm
18:15 24.1 °C 8.4 °C 1001.6 hPa SSE 8 km/h 20.9 km/h 37% 0 mm
18:20 24 °C 8.4 °C 1001.6 hPa SE 8 km/h 17.7 km/h 37% 0 mm
18:25 23.9 °C 8.7 °C 1001.6 hPa SE 6.4 km/h 14.5 km/h 38% 0 mm
18:30 23.8 °C 9 °C 1001.6 hPa ESE 3.2 km/h 12.9 km/h 39% 0 mm
18:35 23.7 °C 9.3 °C 1001.6 hPa Calm   12.9 km/h 40% 0 mm
18:40 23.6 °C 9.2 °C 1001.2 hPa SE 1.6 km/h 11.3 km/h 40% 0 mm
18:45 23.5 °C 9.1 °C 1001.2 hPa SSE 4.8 km/h 11.3 km/h 40% 0 mm
18:50 23.5 °C 9.1 °C 1001.6 hPa SE 6.4 km/h 11.3 km/h 40% 0 mm
18:55 23.4 °C 9 °C 1001.2 hPa SE 1.6 km/h 11.3 km/h 40% 0 mm
19:00 23.3 °C 8.9 °C 1001.2 hPa ESE 6.4 km/h 16.1 km/h 40% 0 mm
19:05 23.3 °C 8.9 °C 1001.2 hPa ESE 6.4 km/h 11.3 km/h 40% 0 mm
19:10 23.2 °C 8.5 °C 1001.2 hPa SE 3.2 km/h 16.1 km/h 39% 0 mm
19:15 23.2 °C 8.4 °C 1001.2 hPa SE 6.4 km/h 16.1 km/h 39% 0 mm
19:20 23.2 °C 8.4 °C 1001.2 hPa SE 6.4 km/h 17.7 km/h 39% 0 mm
19:25 23.1 °C 8.7 °C 1001.6 hPa SSE 9.7 km/h 12.9 km/h 40% 0 mm
19:30 22.9 °C 8.6 °C 1001.6 hPa SSE 3.2 km/h 24.1 km/h 40% 0 mm
19:35 22.8 °C 8.5 °C 1001.6 hPa SSE 4.8 km/h 12.9 km/h 40% 0 mm
19:40 22.8 °C 8.4 °C 1001.6 hPa SE 6.4 km/h 12.9 km/h 40% 0 mm
19:45 22.8 °C 8.4 °C 1001.6 hPa SE 6.4 km/h 17.7 km/h 40% 0 mm
19:50 22.7 °C 8.8 °C 1001.6 hPa SE 8 km/h 25.7 km/h 41% 0 mm
19:55 22.7 °C 8.8 °C 1001.9 hPa SE 9.7 km/h 25.7 km/h 41% 0 mm
20:00 22.6 °C 9.1 °C 1001.9 hPa SSE 9.7 km/h 20.9 km/h 42% 0 mm
20:05 22.5 °C 8.9 °C 1001.9 hPa SE 8 km/h 20.9 km/h 42% 0 mm
20:10 22.4 °C 8.9 °C 1001.9 hPa SE 6.4 km/h 14.5 km/h 42% 0 mm
20:15 22.3 °C 9.5 °C 1001.6 hPa SE 4.8 km/h 11.3 km/h 44% 0 mm
20:20 22.2 °C 9.3 °C 1001.6 hPa East 3.2 km/h 14.5 km/h 44% 0 mm
20:25 22.1 °C 9.3 °C 1001.6 hPa SE 3.2 km/h 16.1 km/h 44% 0 mm
20:30 22.1 °C 9.2 °C 1001.6 hPa SSE 8 km/h 14.5 km/h 44% 0 mm
20:35 22 °C 9.2 °C 1001.6 hPa ESE 1.6 km/h 12.9 km/h 44% 0 mm
20:40 21.9 °C 9.4 °C 1001.6 hPa SE 4.8 km/h 12.9 km/h 45% 0 mm
20:45 21.8 °C 9.4 °C 1001.9 hPa SE 4.8 km/h 12.9 km/h 45% 0 mm
20:50 21.8 °C 9.4 °C 1001.9 hPa SSE 6.4 km/h 16.1 km/h 45% 0 mm
20:55 21.8 °C 9.9 °C 1002.3 hPa SSE 4.8 km/h 11.3 km/h 47% 0 mm
21:00 21.6 °C 10.1 °C 1002.3 hPa SSE 6.4 km/h 14.5 km/h 48% 0 mm
21:05 21.4 °C 9.7 °C 1002.3 hPa South 14.5 km/h 20.9 km/h 47% 0 mm
21:10 21.4 °C 9.7 °C 1002.3 hPa SSE 8 km/h 20.9 km/h 47% 0 mm
21:15 21.3 °C 9.6 °C 1001.9 hPa SSE 8 km/h 19.3 km/h 47% 0 mm
21:20 21.3 °C 9.6 °C 1002.3 hPa SE 6.4 km/h 19.3 km/h 47% 0 mm
21:25 21.3 °C 9.6 °C 1002.3 hPa SE 6.4 km/h 19.3 km/h 47% 0 mm
21:30 21.3 °C 9.5 °C 1001.9 hPa SE 6.4 km/h 19.3 km/h 47% 0 mm
21:35 21.3 °C 9.5 °C 1002.3 hPa SE 6.4 km/h 16.1 km/h 47% 0 mm
21:45 21.2 °C 9.4 °C 1001.9 hPa SE 6.4 km/h 9.7 km/h 47% 0 mm
21:50 21.2 °C 9.4 °C 1002.3 hPa ESE 1.6 km/h 11.3 km/h 47% 0 mm
21:55 21.1 °C 9.3 °C 1002.3 hPa East 9.7 km/h 11.3 km/h 47% 0 mm
22:00 21.1 °C 9.6 °C 1001.9 hPa ESE 6.4 km/h 19.3 km/h 48% 0 mm
22:05 21.1 °C 9.6 °C 1001.9 hPa East 1.6 km/h 12.9 km/h 48% 0 mm
22:10 21 °C 9.6 °C 1002.3 hPa ESE 6.4 km/h 14.5 km/h 48% 0 mm
22:15 20.9 °C 9.5 °C 1002.3 hPa ESE 4.8 km/h 14.5 km/h 48% 0 mm
22:20 20.9 °C 9.8 °C 1002.3 hPa SE 6.4 km/h 16.1 km/h 49% 0 mm
22:25 20.9 °C 9.8 °C 1002.3 hPa SE 8 km/h 20.9 km/h 49% 0 mm
22:30 20.9 °C 9.4 °C 1002.3 hPa SE 8 km/h 20.9 km/h 48% 0 mm
22:35 20.8 °C 9.7 °C 1002.3 hPa ESE 11.3 km/h 12.9 km/h 49% 0 mm
22:40 20.8 °C 9.7 °C 1002.3 hPa SE 8 km/h 20.9 km/h 49% 0 mm
22:45 20.7 °C 9.9 °C 1002.3 hPa SE 8 km/h 20.9 km/h 50% 0 mm
22:50 20.6 °C 9.8 °C 1002.3 hPa SE 8 km/h 17.7 km/h 50% 0 mm
22:55 20.6 °C 9.8 °C 1002.6 hPa SSW 1.6 km/h 17.7 km/h 50% 0 mm
23:00 20.5 °C 10 °C 1002.3 hPa SE 9.7 km/h 17.7 km/h 51% 0 mm
23:05 20.4 °C 9.9 °C 1002.3 hPa SE 9.7 km/h 20.9 km/h 51% 0 mm
23:10 20.3 °C 10.2 °C 1002.3 hPa SE 9.7 km/h 20.9 km/h 52% 0 mm
23:15 20.2 °C 10.3 °C 1001.9 hPa SE 8 km/h 20.9 km/h 53% 0 mm
23:20 20.1 °C 10.2 °C 1002.3 hPa SE 9.7 km/h 25.7 km/h 53% 0 mm
23:25 20 °C 10.4 °C 1002.3 hPa SE 8 km/h 25.7 km/h 54% 0 mm
23:35 19.5 °C 11 °C 1001.9 hPa East 1.6 km/h 14.5 km/h 58% 0 mm
23:40 19.2 °C 11.2 °C 1002.3 hPa SE 6.4 km/h 14.5 km/h 60% 0 mm
23:45 19.1 °C 10.9 °C 1002.3 hPa SE 8 km/h 22.5 km/h 59% 0 mm
23:50 19.1 °C 11.2 °C 1002.3 hPa SE 8 km/h 22.5 km/h 60% 0 mm
23:55 18.9 °C 11.2 °C 1002.3 hPa SE 1.6 km/h 12.9 km/h 61% 0 mm
Buffalo, New York, USA
Compliments of Weather Underground - 2.5 mb